[[{"header":{"parameterUnit":"m.s-1","parameterCategory":1,"la1":30.2991,"la2":30.254,"lo1":-89.0895,"lo2":-89.0444,"dy":0.0017,"dx":0.0017,"nx":28,"ny":28,"refTime":"2025-04-24T03:00:00:Z","depth":0,"parameterNumber":2,"parameterNumberName":"U-component_of_WINDS"},"data":[0,0,0,0,0,0,0,0,0,0,0,0,0,0,0,0,0,0,0,0,0,0,0,0,0,0,0,0,0,0,0,0,0,0,0,0,0,0,0,0,0,0,0,0,0,0,0,0,0,0,0,0,0,0,0,0,0,0,-3.175,-3.1751,0,-3.1821,-3.1822,-3.1823,-3.1775,-3.1773,-3.1771,-3.1769,-3.1841,-3.1845,-3.1849,0,0,0,0,0,0,0,0,0,0,0,0,0,-3.1572,-3.1575,-3.175,-3.1751,-3.1752,-3.1821,-3.1822,-3.1823,-3.1776,-3.1773,-3.177,-3.1768,-3.184,-3.1844,-3.1849,0,0,0,0,0,0,0,0,0,0,0,0,0,-3.1647,-3.1577,-3.175,-3.1736,-3.1736,-3.1821,-3.1822,-3.1823,-3.1776,-3.1773,-3.177,-3.1766,-3.1838,-3.1844,-3.185,-3.1951,0,0,-3.1868,-3.187,0,0,0,0,0,0,0,0,-3.1643,-3.1653,-3.1737,-3.1737,-3.1737,-3.1786,-3.1786,-3.1866,-3.1777,-3.1761,-3.1769,-3.1765,-3.1825,-3.1832,-3.1852,-3.1955,-3.1958,-3.1868,-3.1872,-3.1874,-3.1876,0,0,0,0,0,0,0,-3.1638,-3.165,-3.1778,-3.1739,-3.1738,-3.1727,-3.1734,-3.1801,-3.181,-3.1762,-3.1759,-3.1768,-3.1824,-3.1847,-3.1854,-3.1959,-3.1868,-3.1873,-3.1877,-3.1879,-3.2148,-3.2151,0,0,0,0,0,0,-3.1634,-3.1646,-3.1776,-3.178,-3.1681,-3.1732,-3.174,-3.1774,-3.181,-3.1812,-3.177,-3.1765,-3.1838,-3.1847,-3.1856,-3.1977,-3.1874,-3.188,-3.1883,-3.2144,-3.2149,-3.2153,0,0,0,0,0,0,-3.163,-3.1646,-3.1773,-3.1712,-3.1728,-3.1739,-3.1777,-3.1777,-3.1799,-3.1816,-3.1817,-3.1792,-3.1836,-3.1848,-3.1928,-3.1979,-3.1883,-3.1888,-3.214,-3.2146,-3.2151,-3.222,0,0,0,0,0,0,-3.1625,-3.1645,-3.1684,-3.1714,-3.1731,-3.1844,-3.178,-3.178,-3.1809,-3.1803,-3.1836,-3.1839,-3.1834,-3.1919,-3.1934,-3.1985,-3.1893,-3.2136,-3.2143,-3.2149,-3.2213,-3.2227,-3.2239,0,0,0,0,0,-3.1619,-3.17,-3.1686,-3.1702,-3.178,-3.1847,-3.1857,-3.1851,-3.1814,-3.1853,-3.1864,-3.1837,-3.1971,-3.1928,-3.1944,-3.1998,-3.2132,-3.2141,-3.2148,-3.2207,-3.2224,-3.2238,0,0,0,0,0,0,-3.1675,-3.1704,-3.1688,-3.1782,-3.1812,-3.1839,-3.1888,-3.1869,-3.1911,-3.1903,-3.1894,-3.1901,-3.1985,-3.2,-3.1951,-3.2098,-3.2046,-3.2057,-3.2085,-3.2101,-3.2114,-3.2108,-3.1897,0,0,0,0,0,-3.1699,-3.1751,-3.1773,-3.1853,-3.187,-3.1876,-3.1905,-3.1898,-3.1929,-3.1942,-3.1959,-3.199,-3.2039,-3.2071,-3.2117,-3.2215,-3.2221,-3.226,-3.2273,-3.2284,-3.2293,-3.2346,-3.2363,-3.2179,-3.2179,-3.2179,0,0,-3.1748,-3.177,-3.1803,-3.1865,-3.1888,-3.1942,-3.1887,-3.1947,-3.1987,-3.1951,-3.2027,-3.2041,-3.2075,-3.2165,-3.2205,-3.2179,-3.2346,-3.2294,-3.2302,-3.2306,-3.2356,-3.2373,-3.2389,-3.2184,-3.2183,-3.2183,0,0,-3.1864,-3.1886,-3.1955,-3.1979,-3.2015,-3.2019,-3.2035,-3.2065,-3.2073,-3.215,-3.2124,-3.2171,-3.2256,-3.2281,-3.2305,-3.2431,-3.2408,-3.2446,-3.2513,-3.2564,-3.2579,-3.2591,-3.2635,-3.2651,-3.2456,-3.2457,-3.2457,0,-3.1919,-3.2,-3.1993,-3.2054,-3.2082,-3.2053,-3.2122,-3.2146,-3.2195,-3.2214,-3.2185,-3.2291,-3.2312,-3.2406,-3.2437,-3.2458,-3.2476,-3.2442,-3.2577,-3.259,-3.2602,-3.2644,-3.266,-3.2461,-3.246,-3.246,-3.2459,0,-3.2066,-3.2123,-3.2174,-3.2222,-3.2256,-3.2321,-3.2324,-3.2359,-3.2349,-3.2356,-3.2434,-3.2459,-3.2509,-3.2531,-3.2522,-3.2625,-3.2607,-3.2578,-3.2525,-3.2624,-3.2663,-3.2679,-3.2467,-3.2465,-3.2464,-3.2463,0,0,-3.2219,-3.2262,-3.2281,-3.2302,-3.234,-3.2383,-3.2447,-3.2496,-3.2526,-3.2561,-3.2614,-3.2687,-3.266,-3.2687,-3.2681,-3.2726,-3.2823,-3.2691,-3.2691,-3.2713,-3.2937,-3.2957,-3.2976,-3.2809,-3.2812,-3.2814,-3.2933,0,-3.2336,-3.2447,-3.2443,-3.2547,-3.2598,-3.2572,-3.2627,-3.2656,-3.2665,-3.2709,-3.2719,-3.277,-3.2731,-3.2747,-3.2791,-3.2802,-3.2867,-3.2794,-3.2857,-3.2859,-3.2848,-3.2997,-3.3019,-3.313,-3.2949,-3.2951,-3.2953,0,-3.2487,-3.2527,-3.2636,-3.2666,-3.2687,-3.2737,-3.2782,-3.2825,-3.2857,-3.286,-3.2891,-3.2878,-3.2942,-3.2889,-3.2977,-3.2927,-3.2953,-3.2963,-3.2967,-3.2971,-3.2911,-3.3004,-3.3165,-3.3182,-3.2977,-3.2975,-3.2974,0,-3.2586,-3.2667,-3.2743,-3.2762,-3.2799,-3.2834,-3.2851,-3.288,-3.291,-3.2949,-3.2968,-3.3015,-3.304,-3.3076,-3.3075,-3.3037,-3.3165,-3.3111,-3.3168,-3.3168,-3.3195,-3.3193,-3.3361,-3.3214,-3.3214,-3.3214,-3.3213,0,-3.2716,-3.2784,-3.2787,-3.2834,-3.2909,-3.2903,-3.2977,-3.2991,-3.3017,-3.3065,-3.3045,-3.3091,-3.3088,-3.3134,-3.3134,-3.3206,-3.3218,-3.3222,-3.3221,-3.3223,-3.3222,-3.3239,-3.323,-3.3218,-3.3217,-3.3216,-3.3215,0,-3.2838,-3.2844,-3.2924,-3.2953,-3.2961,-3.3015,-3.3039,-3.3083,-3.309,-3.3151,-3.3165,-3.3177,-3.323,-3.3233,-3.3295,-3.3295,-3.3383,-3.3374,-3.3372,-3.3369,-3.3426,-3.342,-3.3609,-3.3633,-3.3472,-3.3473,-3.3475,0,-3.2921,-3.2972,-3.3006,-3.3037,-3.3056,-3.3106,-3.3136,-3.3133,-3.3166,-3.3206,-3.3245,-3.3297,-3.3338,-3.3424,-3.3438,-3.3485,-3.3476,-3.3539,-3.3483,-3.3483,-3.3475,-3.3472,-3.3476,-3.3549,-3.3551,-3.3553,-3.3554,0,-3.3066,-3.3066,-3.311,-3.3157,-3.3193,-3.3229,-3.3263,-3.3289,-3.329,-3.3328,-3.3382,-3.3414,-3.3477,-3.3528,-3.3574,-3.3591,-3.3573,-3.3572,-3.3587,-3.3589,-3.3585,-3.3587,-3.34,-3.3567,-3.3566,-3.3565,-3.3564,-3.3564,-3.317,-3.3214,-3.3244,-3.3295,-3.332,-3.3351,-3.3394,-3.3407,-3.3452,-3.3503,-3.3498,-3.3559,-3.3589,-3.3649,-3.367,-3.3717,-3.3695,-3.3718,-3.3723,-3.3728,-3.3734,-3.3579,-3.3725,-3.3725,-3.3724,-3.3724,-3.3724,0,-3.3312,-3.3331,-3.3377,-3.3425,-3.3465,-3.3445,-3.3481,-3.3515,-3.3568,-3.3599,-3.3639,-3.3702,-3.3751,-3.3769,-3.3817,-3.3851,-3.3844,-3.3864,-3.3861,-3.3865,-3.3751,-3.3732,-3.3869,-3.3869,-3.3869,-3.3869,-3.3869,-3.3869,-3.3391,-3.3464,-3.3468,-3.3554,-3.3572,-3.3631,-3.3653,-3.3682,-3.3706,-3.3777,-3.3818,-3.3829,-3.3854,-3.3904,-3.3949,-3.3953,-3.3971,-3.3994,-3.3994,-3.3887,-3.3873,-3.3859,-3.3841,-3.3998,-3.3999,-3.4104,-3.4105,-3.4106]},{"header":{"parameterUnit":"m.s-1","parameterCategory":1,"la1":30.2991,"la2":30.254,"lo1":-89.0895,"lo2":-89.0444,"dy":0.0017,"dx":0.0017,"nx":28,"ny":28,"refTime":"2025-04-24T03:00:00:Z","depth":0,"parameterNumber":3,"parameterNumberName":"V-component_of_WINDS"},"data":[0,0,0,0,0,0,0,0,0,0,0,0,0,0,0,0,0,0,0,0,0,0,0,0,0,0,0,0,0,0,0,0,0,0,0,0,0,0,0,0,0,0,0,0,0,0,0,0,0,0,0,0,0,0,0,0,0,0,2.0233,2.0233,0,2.0248,2.0248,2.0248,2.0198,2.0196,2.0195,2.0194,2.0207,2.0208,2.021,0,0,0,0,0,0,0,0,0,0,0,0,0,2.016,2.0161,2.0233,2.0233,2.0233,2.0248,2.0248,2.0248,2.0198,2.0196,2.0195,2.0193,2.0206,2.0208,2.021,0,0,0,0,0,0,0,0,0,0,0,0,0,2.0185,2.0162,2.0233,2.021,2.0208,2.0248,2.0248,2.0248,2.0199,2.0196,2.0194,2.0192,2.0205,2.0208,2.021,2.0272,0,0,2.0218,2.022,0,0,0,0,0,0,0,0,2.0183,2.0187,2.0213,2.0212,2.021,2.0219,2.0227,2.0256,2.0199,2.0202,2.0193,2.0191,2.0212,2.0214,2.0222,2.0272,2.0273,2.0219,2.022,2.0221,2.0222,0,0,0,0,0,0,0,2.0182,2.0186,2.0239,2.0214,2.0212,2.0199,2.02,2.0232,2.022,2.0202,2.0198,2.0201,2.0211,2.0219,2.0222,2.0273,2.0219,2.0221,2.0223,2.0224,2.0375,2.0377,0,0,0,0,0,0,2.0183,2.0185,2.0238,2.0239,2.0191,2.0202,2.0203,2.0218,2.0219,2.0217,2.0203,2.0198,2.0216,2.0219,2.0222,2.0294,2.0221,2.0224,2.0225,2.0372,2.0375,2.0378,0,0,0,0,0,0,2.0182,2.0188,2.0238,2.0211,2.0217,2.0206,2.0223,2.022,2.0228,2.022,2.0217,2.0214,2.0214,2.0218,2.026,2.0293,2.0225,2.0227,2.037,2.0373,2.0377,2.0438,0,0,0,0,0,0,2.018,2.0188,2.0212,2.0212,2.0218,2.0276,2.0225,2.0222,2.0233,2.0228,2.023,2.0228,2.0213,2.0256,2.0263,2.0296,2.0229,2.0366,2.0371,2.0376,2.0433,2.0443,2.0452,0,0,0,0,0,2.0177,2.0228,2.0213,2.022,2.0248,2.0278,2.0281,2.0264,2.0236,2.0259,2.0254,2.0228,2.0289,2.0261,2.0268,2.0302,2.0364,2.037,2.0375,2.0428,2.0441,2.0452,0,0,0,0,0,0,2.023,2.0227,2.0211,2.0263,2.0271,2.0269,2.0298,2.0278,2.0293,2.0287,2.0264,2.0265,2.0311,2.0311,2.028,2.0362,2.0322,2.0329,2.036,2.0372,2.0381,2.038,2.0232,0,0,0,0,0,2.0248,2.0274,2.027,2.0316,2.0321,2.0309,2.0322,2.0308,2.0315,2.0318,2.0316,2.0323,2.0344,2.0358,2.0377,2.0433,2.0432,2.046,2.047,2.0478,2.0484,2.0513,2.0525,2.0396,2.0396,2.0396,0,0,2.0285,2.0287,2.0304,2.0327,2.0331,2.0358,2.0312,2.0342,2.0361,2.0322,2.0361,2.036,2.0367,2.0416,2.0438,2.0417,2.0519,2.0485,2.0491,2.0493,2.052,2.0532,2.0543,2.04,2.0399,2.0399,0,0,2.0365,2.037,2.0409,2.0415,2.0423,2.0415,2.0424,2.0426,2.0424,2.0463,2.0434,2.0457,2.0493,2.0499,2.0507,2.0591,2.0567,2.0598,2.0648,2.0677,2.0687,2.0696,2.0725,2.0736,2.0604,2.0605,2.0605,0,2.0409,2.0449,2.0431,2.0463,2.0474,2.0441,2.048,2.0486,2.05,2.0508,2.0485,2.0531,2.0533,2.0583,2.0604,2.0612,2.0621,2.0597,2.0687,2.0696,2.0704,2.0732,2.0743,2.0608,2.0608,2.0607,2.0607,0,2.0503,2.0531,2.0561,2.0576,2.059,2.0626,2.0613,2.0629,2.0615,2.0609,2.0649,2.0651,2.067,2.0681,2.0667,2.0729,2.0716,2.0691,2.065,2.072,2.0746,2.0756,2.0613,2.0612,2.0611,2.061,0,0,2.0615,2.0621,2.0632,2.0639,2.0646,2.0667,2.0701,2.072,2.0734,2.0745,2.0773,2.0805,2.0782,2.0791,2.0777,2.0803,2.0869,2.0774,2.0774,2.0791,2.0937,2.0956,2.0968,2.0854,2.0856,2.0857,2.0937,0,2.0693,2.0752,2.0738,2.0796,2.0821,2.0791,2.0821,2.0828,2.0824,2.0845,2.084,2.0863,2.0831,2.0836,2.086,2.0856,2.0898,2.085,2.0878,2.0879,2.0876,2.0982,2.1001,2.1076,2.0947,2.0948,2.095,0,2.0792,2.0808,2.0869,2.0873,2.0883,2.091,2.0926,2.0947,2.0954,2.095,2.0961,2.0942,2.0975,2.0935,2.098,2.0948,2.0959,2.0959,2.0961,2.0962,2.0918,2.0985,2.1099,2.111,2.0965,2.0964,2.0963,0,2.0867,2.0904,2.0945,2.0952,2.0957,2.0977,2.098,2.0985,2.0998,2.1013,2.102,2.1039,2.1048,2.1062,2.1049,2.1021,2.1096,2.1055,2.1092,2.1093,2.1108,2.1107,2.1225,2.1117,2.1117,2.1117,2.1117,0,2.0956,2.0994,2.0979,2.1004,2.1046,2.1029,2.1071,2.107,2.1076,2.11,2.1076,2.1099,2.108,2.1101,2.1091,2.113,2.1135,2.1131,2.1128,2.1133,2.1133,2.1138,2.1133,2.112,2.1119,2.1119,2.1118,0,2.1046,2.1037,2.108,2.1082,2.1084,2.1115,2.1116,2.1139,2.1134,2.1165,2.1171,2.1163,2.1187,2.1175,2.12,2.1193,2.1243,2.1233,2.1241,2.1238,2.1275,2.1271,2.1399,2.1415,2.1299,2.13,2.1301,0,2.1102,2.1131,2.1137,2.1152,2.1157,2.1181,2.1194,2.1179,2.1193,2.1205,2.1227,2.1249,2.1266,2.1306,2.1301,2.132,2.131,2.1354,2.1312,2.1317,2.131,2.1308,2.131,2.1361,2.1363,2.1364,2.1365,0,2.1203,2.1198,2.1218,2.1237,2.1254,2.1268,2.128,2.1293,2.1278,2.1296,2.1321,2.1334,2.136,2.1382,2.1399,2.1401,2.1381,2.1378,2.1388,2.1392,2.1395,2.1393,2.1262,2.1375,2.1374,2.1373,2.1373,2.1372,2.1277,2.1301,2.131,2.1333,2.1341,2.1353,2.1375,2.1373,2.1394,2.1414,2.1404,2.1433,2.144,2.1461,2.1466,2.1488,2.147,2.1484,2.1488,2.1491,2.1496,2.1393,2.1491,2.1491,2.149,2.149,2.149,0,2.1376,2.138,2.1402,2.142,2.1439,2.1419,2.1431,2.1448,2.1474,2.1483,2.1501,2.1529,2.1551,2.1549,2.1569,2.1587,2.1578,2.1592,2.159,2.1591,2.1511,2.15,2.1599,2.1599,2.1599,2.1599,2.1599,2.1599,2.1429,2.147,2.1465,2.1509,2.1513,2.1542,2.155,2.1561,2.1568,2.1602,2.162,2.1619,2.1624,2.1644,2.1662,2.1661,2.1669,2.1687,2.1683,2.1607,2.1596,2.1586,2.1576,2.1689,2.169,2.1761,2.1762,2.1762]}]]